Voltar ao catálogo

ONEWEB-0031

AtivoComunicaçõesPO
NORAD 45431·PAYLOAD·🇬🇧 United Kingdom

Lançado Mar 21, 2020 de Baikonur Cosmodrome

Loading…

Próximas Passagens (próximas 24 horas)

TLE

AtualizadoSource: CelesTrak SupGP

Época: Sep 14, 2026, 16:56 UTC

1 45431C 20020H   26257.70572176  .00003688  00000+0  10418-1 0  2574
2 45431  87.8959   3.2728 0001677  98.3384   6.5884 13.11410208    16

Acompanhe ONEWEB-0031 em tempo real com AllMySat

Download on the App Store